Lapse_Rate
2.6 2.2 2.5 2.7 2.4 2.2 2.5 2.4 2.5 2.9 3.1 3.3 3.3 3.6 3.8 3.9 3.9 4.3 4.5 4.8 5.1 4.9 5.2 5.8 6.6 6.7 6.4 6.1 5.9 5.5 5.3 5.5 5.3 5.6 6.2 6.7 6.9 6.5 5.8 5.7 5.9 6.3 6.4
2.0 2.5 2.5 3.0 2.7 2.3 2.4 2.7 2.9 3.2 3.5 3.6 3.7 3.6 4.0 4.0 4.3 4.4 4.6 4.7 4.7 5.3 5.8 6.6 7.1 7.1 6.1 5.8 5.5 5.0 4.8 4.7 5.0 6.2 6.7 6.8 6.6 6.7 6.5 6.3 6.1 6.1 6.5
2.4 2.3 2.3 2.6 3.0 2.8 2.5 3.1 3.6 3.9 3.9 3.5 4.0 3.8 4.2 4.4 4.5 4.7 4.9 4.9 5.3 6.1 6.9 7.0 7.4 6.5 6.1 5.7 5.4 5.2 5.2 5.3 5.6 6.1 6.6 6.6 6.7 7.2 6.9 6.3 6.3 6.8 6.9
3.2 2.0 2.2 2.9 3.2 3.1 2.9 3.3 3.9 4.4 4.4 4.0 4.2 4.0 4.1 4.3 4.5 4.8 5.2 5.9 6.5 6.6 7.0 7.2 6.7 6.3 6.0 5.8 5.8 6.0 6.1 6.0 6.0 6.6 6.9 7.0 7.0 7.1 6.3 6.1 6.2 5.7 5.9
3.8 3.8 2.7 3.2 3.3 3.3 3.4 3.9 4.2 4.9 4.5 4.3 4.5 4.5 4.4 4.7 4.8 4.9 5.6 6.3 6.6 7.0 7.5 6.8 6.6 6.3 5.9 5.9 6.2 6.6 6.9 6.5 6.1 6.2 6.9 6.7 6.4 6.9 6.2 5.9 5.8 5.5 5.3
4.4 4.2 2.5 3.8 3.9 4.0 4.1 4.2 4.4 4.1 4.3 4.2 4.6 4.9 4.8 5.0 5.4 5.6 5.7 6.6 7.0 7.2 7.5 6.1 5.8 5.7 5.6 6.1 6.7 6.8 7.7 7.3 6.0 5.1 6.5 7.0 6.7 6.6 5.4 5.4 5.2 4.9 5.0
4.1 2.7 4.1 4.7 4.5 4.3 4.5 5.3 5.5 4.8 6.0 4.5 4.9 5.2 5.0 5.0 5.8 5.7 6.0 6.5 7.0 7.0 5.7 5.2 5.5 5.7 5.9 5.7 6.2 7.1 7.0 6.6 5.3 4.5 4.5 6.4 7.2 5.1 5.1 4.8 4.7 4.7 4.3
3.8 3.1 4.3 4.6 5.0 5.0 5.2 6.1 5.7 3.2 3.5 3.3 4.0 6.6 5.8 5.6 6.0 5.9 6.1 6.2 6.5 5.8 5.3 4.7 5.4 5.8 5.2 5.9 6.2 7.0 6.7 5.9 5.0 4.5 4.7 6.3 6.2 6.4 4.9 4.3 4.1 4.3 4.1
4.6 4.0 3.6 4.5 4.6 4.1 3.4 3.5 2.2 2.6 3.3 2.5 3.0 6.1 6.9 5.7 6.1 6.4 6.0 4.9 5.2 4.8 4.7 4.5 5.2 5.4 5.6 5.6 6.7 6.3 6.2 5.4 4.5 4.6 5.2 6.2 7.2 5.5 5.3 4.3 4.2 3.8 3.9
3.3 4.5 5.0 4.6 3.7 3.0 1.8 2.9 1.2 2.4 3.0 4.0 4.0 4.5 5.8 6.1 5.8 5.3 4.9 4.6 4.2 4.1 4.4 4.3 4.8 4.9 5.5 6.5 5.8 6.1 6.2 5.4 4.7 4.6 5.0 5.7 6.0 5.5 4.6 4.4 4.2 3.9 4.0
3.9 3.7 3.8 4.8 3.6 2.8 2.1 3.1 3.7 4.2 4.2 3.4 3.3 3.1 6.0 6.0 5.3 5.2 4.9 4.0 3.9 3.9 3.8 3.9 4.1 5.1 6.1 5.7 6.2 6.8 6.7 5.0 4.5 4.4 4.7 5.7 5.0 4.9 4.6 4.3 4.2 4.1 4.2
5.2 4.9 4.1 4.2 4.4 3.9 3.9 2.7 3.3 3.9 3.3 3.1 4.3 3.5 5.4 5.3 5.1 4.2 4.6 3.7 3.3 3.6 3.6 3.5 4.2 5.6 5.6 5.6 6.2 7.0 5.9 4.9 4.8 4.6 4.2 5.0 4.8 4.8 4.5 4.4 4.2 4.2 3.9
4.2 4.0 4.9 4.7 3.8 4.4 4.2 3.5 3.6 3.3 3.0 3.8 4.6 4.8 5.1 5.1 4.7 3.9 4.3 4.0 3.6 3.0 3.5 3.7 4.4 5.1 5.5 5.5 6.2 6.1 5.7 4.8 4.6 4.4 4.3 4.8 5.1 4.8 4.5 4.4 4.1 4.0 4.0
4.4 5.7 4.2 4.6 4.5 4.1 4.3 3.1 3.5 3.1 3.2 4.4 4.1 5.3 5.2 4.7 4.2 3.8 3.7 3.0 3.0 2.3 2.1 2.9 3.9 5.1 5.7 6.4 6.7 6.1 5.5 4.3 4.3 3.5 4.3 5.2 5.2 5.1 4.8 4.5 4.4 4.3 4.1
4.1 3.4 2.8 3.0 3.9 4.2 4.6 4.1 4.0 4.2 3.8 3.6 4.3 5.3 5.2 4.4 3.8 3.7 3.4 3.0 3.0 3.2 3.2 3.5 3.6 5.2 5.8 6.0 6.6 6.6 5.3 4.1 4.1 3.5 4.3 5.1 5.2 5.3 5.3 5.0 4.8 4.7 4.6
3.9 3.0 2.4 2.7 3.1 3.8 3.8 4.1 4.4 3.6 4.1 4.0 4.4 5.0 4.7 3.8 3.8 3.3 3.6 3.3 3.3 3.9 4.2 4.3 4.2 4.7 5.3 5.7 5.5 6.4 5.3 4.4 4.3 3.5 4.0 4.9 4.9 5.2 5.3 5.3 5.1 4.8 4.8
3.4 2.7 2.1 2.4 2.4 3.1 3.5 3.9 3.6 3.5 4.7 3.5 3.9 4.6 4.9 4.2 4.0 3.5 3.9 4.5 4.5 4.7 5.3 5.5 5.2 5.6 4.9 6.1 5.5 6.1 6.0 4.6 4.6 4.0 3.9 4.3 4.8 5.1 5.4 5.3 5.3 5.1 5.1
2.9 3.7 2.9 3.1 2.2 2.3 3.3 4.3 4.2 3.6 3.9 4.3 4.1 3.8 5.1 4.5 4.4 4.3 4.5 5.0 4.8 5.4 5.9 5.6 5.8 5.8 4.9 4.9 4.4 4.9 5.3 5.5 4.8 4.5 4.3 4.1 4.0 4.1 4.8 5.0 5.1 5.1 5.3
3.8 4.6 3.5 2.6 2.2 2.6 3.7 4.9 4.8 4.5 4.2 4.3 3.8 4.4 4.2 4.9 4.6 5.1 4.5 4.7 5.0 5.9 5.0 6.2 5.5 5.6 5.3 4.7 4.8 4.3 4.1 4.8 5.0 5.1 4.8 4.3 4.1 4.2 4.0 4.6 5.1 5.2 5.4
3.8 5.2 4.3 3.5 2.5 2.9 3.3 4.3 4.2 4.4 4.5 3.7 3.6 4.2 4.3 5.5 5.6 6.0 4.6 5.0 4.6 4.8 3.8 6.5 6.0 4.6 5.5 5.7 7.6 5.7 4.4 4.1 5.0 4.9 4.6 4.8 4.6 4.7 4.6 4.6 4.7 4.8 5.3
3.7 5.4 5.0 4.4 4.7 4.1 4.0 4.9 4.7 4.5 4.3 3.9 4.1 4.3 4.7 5.4 6.0 6.0 5.2 4.5 4.4 4.3 4.2 5.5 4.7 5.2 4.8 4.8 4.3 4.0 4.7 4.7 4.6 4.3 4.8 5.2 5.4 5.3 4.7 4.7 4.5 4.7 4.8
3.4 5.9 5.9 4.9 5.1 5.4 5.4 5.0 5.2 4.4 4.3 4.7 4.9 4.5 5.2 6.1 5.8 5.7 5.4 5.4 4.1 4.2 4.3 4.0 4.6 4.2 4.4 4.1 4.8 4.6 5.4 5.4 4.5 4.0 3.5 4.2 4.2 5.6 5.0 5.1 4.5 4.1 4.3
3.1 5.6 5.5 5.1 5.1 5.6 5.7 5.8 5.1 5.7 4.7 4.7 5.2 5.1 6.0 6.4 6.3 7.0 6.6 5.4 4.7 5.3 5.0 4.4 4.2 4.8 4.6 4.2 5.4 3.8 4.7 5.0 4.2 4.4 4.0 3.5 4.0 3.2 5.1 5.6 4.5 4.4 4.3
2.6 6.1 5.6 5.3 5.5 6.0 5.0 5.8 5.5 5.6 5.2 5.4 5.1 5.5 6.2 6.1 5.9 6.5 5.4 5.3 5.6 5.9 5.7 4.1 3.9 4.4 3.9 3.7 3.9 4.4 4.2 3.9 4.6 5.0 4.2 3.7 3.3 3.9 2.8 3.7 5.0 4.7 4.7
2.9 5.6 4.9 5.9 5.5 6.0 5.7 5.5 5.7 5.5 5.7 6.0 6.1 6.1 5.9 5.6 6.3 6.7 5.7 4.7 3.7 3.5 3.5 3.7 3.7 4.0 3.8 3.4 4.1 4.2 4.4 4.0 4.2 4.5 4.4 3.5 3.5 3.0 3.4 3.7 4.0 4.6 4.5
3.1 6.4 6.2 5.4 5.6 6.1 6.1 5.7 5.5 5.6 5.8 5.6 6.1 6.1 5.7 6.2 5.6 5.9 5.2 4.4 4.0 3.2 3.5 3.9 3.5 3.8 3.5 3.5 4.2 3.9 3.8 4.7 3.9 3.9 4.0 3.6 3.2 2.3 2.6 3.3 3.7 3.9 3.5
Wind_Speed
5 10 16 18 21 22 16 16 16 16 19 21 23 24 25 25 27 27 29 29 28 27 27 25 26 26 28 30 30 30 30 30 31 30 30 30 30 30 30 28 28 28 30
12 13 17 18 20 22 20 17 17 18 20 21 21 23 23 25 25 26 27 28 28 27 26 25 26 25 28 30 29 31 32 31 31 30 30 30 30 30 30 28 29 29 30
12 15 16 19 19 20 23 20 19 20 21 23 22 24 23 23 25 25 24 26 27 28 28 26 25 27 29 29 29 32 31 31 30 28 26 23 26 29 29 29 29 28 29
10 14 15 16 19 20 22 24 22 21 22 23 23 25 25 25 25 24 26 26 26 27 27 27 27 28 27 28 29 30 31 31 28 25 21 22 23 25 28 27 27 27 27
11 15 16 19 19 21 23 24 24 22 22 24 23 24 26 25 26 27 26 25 26 26 27 28 25 24 22 23 24 24 29 25 27 26 20 19 19 24 26 26 26 26 25
7 15 21 23 19 18 22 25 26 28 27 26 25 26 28 28 26 27 28 26 26 26 28 28 24 21 19 20 20 16 16 29 23 24 20 21 20 24 25 24 24 25 24
6 10 18 22 22 24 24 25 27 26 21 23 27 28 30 30 28 28 27 27 26 28 26 27 21 19 20 21 19 15 25 28 23 21 20 18 22 25 25 24 24 24 25
7 8 10 14 20 22 25 30 26 21 14 12 17 24 25 30 29 29 28 27 27 28 24 22 19 18 18 21 16 17 27 29 25 22 20 18 23 24 24 25 25 24 24
6 6 7 10 6 11 21 23 18 23 16 10 24 25 24 28 28 27 28 30 29 26 23 19 18 15 17 18 15 18 31 28 25 21 18 17 23 24 23 24 24 25 23
6 4 5 7 10 11 14 21 19 20 23 27 14 11 27 28 27 28 30 30 28 26 23 18 17 16 16 16 15 28 32 29 25 20 17 20 23 23 23 22 23 24 23
5 6 6 7 8 12 12 17 20 21 26 30 26 11 29 23 25 28 26 30 28 25 21 19 18 18 17 13 14 19 22 23 24 19 17 22 23 22 22 21 21 22 21
6 5 6 5 9 10 12 11 15 18 15 16 19 19 17 21 22 25 25 28 28 23 19 19 19 19 14 9 11 20 20 23 21 20 18 21 22 22 21 20 20 20 20
6 4 4 4 5 11 9 9 9 10 9 18 22 31 22 20 21 20 19 20 19 24 17 16 16 12 11 9 8 16 19 20 20 19 20 21 21 21 20 19 20 19 18
6 4 3 1 3 6 8 7 8 6 9 9 3 26 22 14 15 15 14 15 14 13 13 14 13 11 11 9 7 14 17 19 18 18 20 20 20 20 19 19 18 18 18
7 7 6 5 4 4 6 9 8 8 6 11 9 17 23 14 10 16 15 13 12 14 15 13 11 10 9 7 4 19 16 17 21 20 21 21 20 19 18 18 17 17 17
7 7 6 5 1 4 1 5 9 8 11 18 16 17 24 20 14 11 11 12 10 14 15 13 10 8 6 8 6 17 18 17 21 20 21 19 18 17 18 18 18 17 17
8 7 6 5 1 3 5 3 6 7 15 10 17 17 20 23 21 16 9 9 13 15 16 12 10 12 6 7 5 13 17 17 20 21 21 21 20 19 19 19 18 18 17
11 10 5 3 4 4 6 5 6 7 10 11 17 22 19 20 20 17 11 9 16 14 14 7 6 7 6 5 3 5 9 16 17 21 20 20 20 18 21 22 21 20 19
13 12 7 4 4 5 5 5 9 10 9 12 16 15 19 19 21 16 9 11 16 13 7 6 5 7 6 5 5 4 4 7 15 17 18 19 22 19 19 22 23 22 22
13 11 9 6 5 6 6 5 6 7 9 13 10 12 17 16 19 17 9 11 13 8 5 7 9 4 6 7 7 5 4 5 12 13 15 17 19 20 20 20 21 21 26
13 11 10 10 8 6 5 6 7 6 7 9 9 16 17 16 17 15 7 6 6 8 6 10 5 7 3 5 4 3 1 4 5 5 13 14 16 19 20 19 19 19 22
14 11 11 10 10 7 5 5 4 6 4 8 10 14 18 17 15 11 9 8 6 4 3 5 6 3 3 5 4 3 2 2 2 4 4 5 9 16 17 20 20 21 21
14 12 11 11 10 9 10 6 6 7 6 4 9 10 11 18 14 14 14 9 10 10 9 6 6 7 5 2 10 4 3 4 2 2 5 5 6 5 13 17 19 21 22
12 12 12 12 11 9 12 9 12 7 9 7 7 9 10 14 8 9 11 11 11 12 10 5 5 4 4 5 2 1 2 3 3 1 2 4 5 7 7 12 16 21 24
14 13 12 13 13 11 10 12 10 9 9 9 8 11 8 7 11 12 13 9 7 5 6 7 6 6 3 4 3 2 2 2 2 3 3 3 2 4 6 11 16 20 22
14 14 13 14 13 13 12 13 14 14 11 10 11 10 7 7 5 7 9 8 7 6 7 7 6 7 5 4 3 3 3 3 3 3 2 3 4 4 6 8 10 17 19
Wind_Direction
114 138 147 143 135 129 130 126 117 114 114 116 116 114 115 114 114 116 118 117 118 117 118 118 112 108 106 107 105 102 100 99 97 96 97 99 97 95 92 88 89 87 88
135 151 153 147 141 138 136 134 129 126 123 119 117 115 116 117 117 117 117 117 116 117 121 120 117 118 113 110 106 103 100 95 93 95 96 98 99 97 93 88 87 86 84
146 149 155 152 149 147 141 139 138 136 134 128 132 122 120 118 117 117 117 118 120 121 121 122 124 122 119 114 111 107 103 99 97 94 95 96 97 97 94 88 87 88 88
150 153 148 151 154 153 150 149 148 146 144 138 136 132 130 128 126 124 124 123 122 121 123 123 124 125 123 122 120 118 114 110 106 100 93 96 97 100 94 93 93 92 90
153 156 152 155 162 162 159 154 148 151 146 144 146 142 137 136 135 132 129 128 128 128 127 125 128 127 123 122 126 123 112 106 102 96 94 93 101 103 101 98 97 96 97
157 156 157 162 162 166 166 163 160 159 162 155 153 153 146 144 141 136 133 132 131 130 128 129 135 134 128 119 113 109 91 111 95 93 92 97 101 103 101 102 103 102 103
118 141 154 164 166 173 176 173 166 162 165 153 163 163 151 146 148 139 135 133 134 128 131 135 143 136 127 110 101 89 103 107 103 98 95 103 108 109 110 110 109 109 108
104 136 148 165 175 182 187 190 177 102 76 54 343 159 154 144 143 139 134 128 127 127 137 138 142 135 118 113 107 87 114 111 106 103 105 112 116 115 114 114 112 111 110
97 109 143 148 134 125 131 130 143 149 158 313 346 194 158 142 140 139 134 127 127 130 138 142 139 130 122 111 100 79 114 110 107 109 110 115 119 118 118 115 116 114 113
134 132 139 140 130 128 130 135 154 172 161 194 178 231 173 143 136 129 128 128 128 133 141 139 136 131 128 114 89 105 117 112 110 107 113 123 124 120 119 119 118 117 118
156 169 184 151 145 148 146 149 160 166 167 172 184 178 172 142 130 127 133 129 131 136 140 139 139 144 139 119 101 107 120 115 117 121 124 128 127 124 125 124 123 122 122
187 188 179 182 158 158 160 155 138 166 182 177 179 177 192 142 136 129 131 129 130 133 137 136 145 150 136 127 113 91 119 119 123 128 133 134 131 132 130 130 129 128 128
132 135 176 198 183 163 168 168 149 152 130 172 203 202 166 135 127 126 130 127 134 134 134 134 142 147 143 140 117 100 123 122 129 131 139 138 139 138 137 138 136 135 134
123 116 120 93 169 181 158 175 165 150 149 171 272 133 133 130 132 131 135 132 139 134 133 145 150 162 156 147 162 115 130 130 133 130 143 145 146 145 146 146 143 142 142
126 115 89 62 55 157 154 162 167 161 168 160 141 138 138 136 139 140 136 133 141 146 151 160 156 164 168 182 190 125 131 134 134 135 147 155 155 154 155 154 152 150 149
121 114 104 78 349 147 122 162 160 156 143 155 131 133 135 137 147 135 142 140 149 161 167 166 162 165 176 184 160 122 137 141 138 139 152 160 161 164 165 165 163 162 162
124 119 104 120 140 134 132 142 148 147 145 142 140 134 142 148 148 138 148 153 157 171 171 177 171 177 141 172 135 130 145 147 144 149 158 169 173 174 175 174 175 175 175
129 125 124 144 140 139 130 140 138 147 153 145 140 141 146 148 153 147 153 163 161 176 174 177 170 157 153 152 139 142 142 144 154 158 164 174 177 184 187 185 185 187 189
133 129 140 156 123 123 113 130 150 147 143 148 141 151 140 154 160 151 160 170 165 181 164 183 170 148 156 159 160 150 135 143 156 161 173 180 187 190 194 199 198 198 199
130 138 146 147 129 121 103 121 116 131 150 143 151 156 149 166 165 167 176 173 170 176 168 167 166 150 162 165 163 153 153 154 162 169 180 185 191 195 197 201 206 211 210
133 147 154 145 153 134 128 130 134 142 146 145 155 163 171 173 171 174 180 151 141 162 174 166 156 155 148 154 113 66 84 177 183 184 171 189 197 200 200 202 204 211 218
149 157 156 150 160 154 154 141 132 137 140 155 168 169 175 178 184 179 170 162 155 133 133 196 146 135 142 152 141 117 127 337 258 221 210 192 194 194 199 204 203 209 212
150 165 163 158 169 160 153 143 130 143 136 152 166 167 182 184 199 185 170 164 164 165 192 191 150 145 149 152 150 149 125 209 153 219 220 212 210 203 210 201 204 208 211
156 166 164 163 170 166 159 157 159 162 161 175 163 172 182 195 195 166 157 158 167 175 177 168 155 155 142 156 117 152 123 147 155 198 273 228 205 217 212 219 211 212 213
155 164 171 166 169 175 165 166 162 157 173 172 174 175 189 193 198 188 175 165 165 160 162 157 159 150 149 146 135 140 156 174 161 148 237 254 224 216 217 214 216 224 223
157 162 166 170 173 178 170 167 171 171 171 172 183 185 189 197 193 191 169 172 177 171 167 175 169 172 156 165 135 184 161 180 189 161 183 239 211 245 219 221 218 225 224